Black River Falls, WI

9:41 PM CDT on March 24, 2017 (GMT -0500)
Black River Falls Area

Weather History for KBCK - August, 2014

Change the Weather History Date:

Thursday, August 7, 2014

  Actual Average (KCMY) Record (KCMY)
Temperature  
Mean Temperature 67 °F -  
Max Temperature 84 °F 81 °F 96 °F (2001)
Min Temperature 51 °F 56 °F 42 °F (1976)
Cooling Degree Days 2    
Growing Degree Days 17 (Base 50)    
Moisture  
Dew Point 55 °F    
Average Humidity 72    
Maximum Humidity 100    
Minimum Humidity 31    
Precipitation  
Precipitation 0.00 in - - ()
Sea Level Pressure  
Sea Level Pressure 30.08 in    
Wind  
Wind Speed 2 mph (SE)    
Max Wind Speed 8 mph    
Max Gust Speed 17 mph    
Visibility 8 miles    
Events Fog    
Averages and records for this station are not official NWS values.
T = Trace of Precipitation, MM = Missing Value Source: NWS Daily Summary

Daily Weather History Graph

Daily Weather History Graph

Search for Another Location

Airport or City:

Trip Planner

Search our weather history database for the weather conditions in past years. The results will help you decide how hot, cold, wet, or windy it might be!

Date:

Astronomy

Aug. 07, 2014 Rise Set
Actual Time 5:57 AM CDT 8:19 PM CDT
Civil Twilight 5:25 AM CDT 8:52 PM CDT
Nautical Twilight 4:44 AM CDT 9:32 PM CDT
Astronomical Twilight 3:59 AM CDT 10:17 PM CDT
Moon 5:38 PM CDT (8/7) 2:26 AM CDT (8/7)
Length of Visible Light 15h 27m
Length of Day
14h 22m
Waxing Gibbous, 87% of the Moon is Illuminated
Aug 7
Waxing Gibbous
Aug 10
Full
Aug 17
Last Quarter
Aug 25
New
Sep 2
First Quarter

Hourly Weather History & Observations

Time (CDT) Temp. Heat Index Dew Point Humidity Pressure Visibility Wind Dir Wind Speed Gust Speed Precip Events Conditions
12:15 AM 55.8 °F - 55.8 °F 100% 30.09 in 10.0 mi Calm Calm - N/A   Clear
12:35 AM 56.5 °F - 56.5 °F 100% 30.08 in 10.0 mi Calm Calm - N/A   Mostly Cloudy
12:55 AM 55.6 °F - 55.6 °F 100% 30.08 in 3.0 mi Calm Calm - N/A   Scattered Clouds
1:15 AM 55.4 °F - 55.4 °F 100% 30.08 in 5.0 mi East 3.5 mph - N/A   Clear
1:35 AM 54.9 °F - 54.9 °F 100% 30.07 in 7.0 mi Calm Calm - N/A   Scattered Clouds
1:55 AM 56.3 °F - 56.3 °F 100% 30.08 in 1.0 mi SSW 3.5 mph - N/A   Mostly Cloudy
2:15 AM 56.8 °F - 56.8 °F 100% 30.07 in 0.2 mi Calm Calm - N/A Fog Fog
2:35 AM 55.9 °F - 55.9 °F 100% 30.08 in 0.2 mi Calm Calm - N/A Fog Fog
2:55 AM 54.9 °F - 54.9 °F 100% 30.07 in 0.5 mi Calm Calm - N/A Fog Fog
3:15 AM 54.1 °F - 54.1 °F 100% 30.08 in 1.8 mi Calm Calm - N/A   Mist
3:35 AM 53.2 °F - 53.2 °F 100% 30.08 in 3.0 mi Calm Calm - N/A   Scattered Clouds
4:15 AM 53.2 °F - 53.2 °F 100% 30.08 in 0.2 mi Calm Calm - N/A Fog Fog
4:35 AM 52.3 °F - 52.3 °F 100% 30.08 in 0.2 mi Calm Calm - N/A Fog Fog
4:55 AM 52.9 °F - 52.9 °F 100% 30.08 in 0.2 mi Calm Calm - N/A Fog Fog
5:15 AM 52.3 °F - 52.3 °F 100% 30.08 in 0.2 mi Calm Calm - N/A Fog Fog
5:35 AM 52.5 °F - 52.5 °F 100% 30.09 in 0.2 mi Calm Calm - N/A Fog Fog
5:55 AM 52.5 °F - 52.5 °F 100% 30.09 in 0.8 mi Calm Calm - N/A   Overcast
6:15 AM 51.8 °F - 51.8 °F 100% 30.11 in 0.2 mi Calm Calm - N/A Fog Fog
6:35 AM 53.4 °F - 53.4 °F 100% 30.11 in 0.2 mi Calm Calm - N/A Fog Fog
6:55 AM 55.6 °F - 55.6 °F 100% 30.11 in 0.2 mi Calm Calm - N/A Fog Fog
7:15 AM 56.5 °F - 56.5 °F 100% 30.11 in 3.0 mi Calm Calm - N/A   Overcast
7:35 AM 58.1 °F - 58.1 °F 100% 30.11 in 10.0 mi Calm Calm - N/A   Scattered Clouds
7:55 AM 59.0 °F - 59.0 °F 100% 30.11 in 7.0 mi North 3.5 mph - N/A   Clear
8:15 AM 60.6 °F - 60.6 °F 100% 30.11 in 10.0 mi NE 3.5 mph - N/A   Clear
8:35 AM 62.4 °F - 62.1 °F 99% 30.12 in 10.0 mi Calm Calm - N/A   Clear
8:55 AM 63.9 °F - 62.8 °F 96% 30.12 in 10.0 mi Calm Calm - N/A   Clear
9:15 AM 67.1 °F - 60.6 °F 80% 30.12 in 10.0 mi Calm Calm - N/A   Clear
9:35 AM 69.1 °F - 59.7 °F 72% 30.12 in 10.0 mi Calm Calm - N/A   Clear
9:55 AM 71.8 °F - 59.0 °F 64% 30.12 in 10.0 mi Calm Calm - N/A   Clear
10:15 AM 73.8 °F - 58.8 °F 59% 30.12 in 10.0 mi ESE 3.5 mph - N/A   Clear
10:35 AM 75.9 °F - 57.2 °F 52% 30.12 in 10.0 mi East 3.5 mph - N/A   Clear
10:55 AM 77.9 °F - 54.1 °F 44% 30.12 in 10.0 mi SE 8.1 mph - N/A   Clear
11:15 AM 79.0 °F - 52.5 °F 40% 30.11 in 10.0 mi East 8.1 mph - N/A   Clear
11:35 AM 78.8 °F - 52.3 °F 40% 30.11 in 10.0 mi SE 4.6 mph - N/A   Clear
11:55 AM 78.8 °F - 51.8 °F 39% 30.11 in 10.0 mi ESE 6.9 mph - N/A   Clear
12:15 PM 79.9 °F - 52.3 °F 38% 30.11 in 10.0 mi SE 5.8 mph - N/A   Clear
12:35 PM 80.6 °F - 52.5 °F 38% 30.10 in 10.0 mi ESE 5.8 mph - N/A   Clear
12:55 PM 81.1 °F - 52.9 °F 37% 30.09 in 10.0 mi ESE 8.1 mph - N/A   Clear
1:15 PM 81.0 °F - 52.7 °F 37% 30.09 in 10.0 mi SE 5.8 mph - N/A   Scattered Clouds
1:35 PM 81.5 °F - 51.6 °F 35% 30.09 in 10.0 mi SSE 6.9 mph - N/A   Mostly Cloudy
1:55 PM 81.9 °F - 51.4 °F 35% 30.08 in 10.0 mi SSE 5.8 mph - N/A   Scattered Clouds
2:15 PM 82.2 °F - 51.8 °F 35% 30.08 in 10.0 mi South 5.8 mph - N/A   Clear
2:35 PM 82.4 °F - 51.1 °F 34% 30.07 in 10.0 mi ESE 5.8 mph - N/A   Clear
2:55 PM 82.8 °F - 50.7 °F 33% 30.07 in 10.0 mi South 6.9 mph - N/A   Clear
3:15 PM 82.4 °F - 50.4 °F 33% 30.06 in 10.0 mi SE 5.8 mph 9.2 mph N/A   Scattered Clouds
3:35 PM 83.1 °F - 50.7 °F 32% 30.06 in 10.0 mi East 8.1 mph 17.3 mph N/A   Scattered Clouds
3:55 PM 82.8 °F - 49.1 °F 31% 30.05 in 10.0 mi SSE 6.9 mph - N/A   Scattered Clouds
4:15 PM 83.1 °F - 51.4 °F 33% 30.05 in 10.0 mi SE 4.6 mph - N/A   Scattered Clouds
4:35 PM 81.9 °F - 50.2 °F 33% 30.05 in 10.0 mi East 6.9 mph - N/A   Mostly Cloudy
4:55 PM 80.4 °F - 52.2 °F 37% 30.04 in 10.0 mi SE 6.9 mph - N/A   Scattered Clouds
5:15 PM 78.1 °F - 53.8 °F 43% 30.04 in 10.0 mi SE 3.5 mph - N/A   Scattered Clouds
5:35 PM 80.8 °F 80.3 °F 53.2 °F 38% 30.04 in 10.0 mi ESE 5.8 mph - N/A   Clear
5:55 PM 82.2 °F - 51.1 °F 34% 30.04 in 10.0 mi SE 4.6 mph - N/A   Scattered Clouds
6:15 PM 80.2 °F 80.0 °F 53.2 °F 39% 30.04 in 10.0 mi ESE 4.6 mph - N/A   Mostly Cloudy
6:35 PM 79.7 °F - 54.5 °F 42% 30.04 in 10.0 mi SSE 4.6 mph - N/A   Mostly Cloudy
6:55 PM 79.7 °F - 54.7 °F 42% 30.04 in 10.0 mi SE 3.5 mph - N/A   Scattered Clouds
7:15 PM 77.9 °F - 55.4 °F 46% 30.04 in 10.0 mi SE 3.5 mph - N/A   Scattered Clouds
7:35 PM 77.0 °F - 56.3 °F 49% 30.03 in 10.0 mi Calm Calm - N/A   Clear
7:55 PM 75.0 °F - 57.0 °F 53% 30.04 in 10.0 mi Calm Calm - N/A   Clear
8:15 PM 71.1 °F - 59.0 °F 66% 30.04 in 10.0 mi Calm Calm - N/A   Clear
8:35 PM 66.9 °F - 59.2 °F 76% 30.04 in 10.0 mi Calm Calm - N/A   Clear
8:55 PM 64.6 °F - 58.5 °F 80% 30.04 in 10.0 mi Calm Calm - N/A   Clear
9:15 PM 62.2 °F - 57.7 °F 85% 30.05 in 10.0 mi Calm Calm - N/A   Clear
9:35 PM 61.2 °F - 59.9 °F 96% 30.06 in 10.0 mi Calm Calm - N/A   Clear
9:55 PM 59.7 °F - 58.5 °F 96% 30.06 in 10.0 mi Calm Calm - N/A   Clear
10:15 PM 59.2 °F - 58.3 °F 97% 30.06 in 10.0 mi Calm Calm - N/A   Clear
10:35 PM 58.6 °F - 58.6 °F 100% 30.06 in 10.0 mi Calm Calm - N/A   Clear
10:55 PM 58.1 °F - 57.2 °F 97% 30.07 in 10.0 mi Calm Calm - N/A   Clear
11:15 PM 59.4 °F - 59.4 °F 100% 30.07 in 10.0 mi Calm Calm - N/A   Clear
11:35 PM 58.5 °F - 57.7 °F 97% 30.08 in 7.0 mi Calm Calm - N/A   Clear
11:55 PM 58.6 °F - 58.6 °F 100% 30.08 in 7.0 mi Calm Calm - N/A   Clear